Tracking 18980 objects as of 18-Feb-2018
HD Live streaming from Space Station
objects crossing your sky now

WESTFORD NEEDLES

Track WESTFORD NEEDLES now!
10-day predictions
WESTFORD NEEDLES is classified as:


NORAD ID: 2378
Int'l Code: 1963-014Y
Perigee: 3,307.4 km
Apogee: 3,974.5 km
Inclination: 87.3 °
Period: 166.2 minutes
Semi major axis: 10011 km
RCS: 0.2715 m2 (medium)
Launch date: May 9, 1963
Source: United States (US)
Launch site: AIR FORCE WESTERN TEST RANGE (AFWTR)
aabbcc
Your satellite tracking list
Your tracking list is empty




NASA's NSSDC Master Catalog

Two Line Element Set (TLE):
1 02378U 63014Y   18040.39114780 -.00000002  00000-0 -18139-2 0  9998
2 02378  87.2830  92.1012 0333164 296.1456  60.5488  8.66613135731515
Source of the keplerian elements: AFSPC